MICROMAS-2A (43131 NORAD) Tracking and Keplerian Element Data

This shows tracking and keplerian element data for the satellite.

Feedback or suggestion? Click here.




ElementValue
Catalog43131
NameMICROMAS-2A
Epoch Orbit2839
Epoch Day198.9191561
Epoch Year2018
RAAN261.7032
Inclination97.532
Eccentricity0.0009572
Argument of Perigee0.993
Mean Anonmoly359.1324
Mean Motion15.22907247
Decay Rate1.477E-05
L11 43131U 18004W 18198.91915610 .00001477 00000-0 66023-4 0 9994
L22 43131 97.5320 261.7032 0009572 0.9930 359.1324 15.22907247 28393

Live tracking and technical data element details for MICROMAS-2A (NORAD 43131). MICROMAS-2A can be tracked NOW for your location showing map with azimuth and elevation plus other details from your city location.

Track the satellite on the map from your city or location and see movement details for azimuth, elevation, latitude, longitude, range, height, and movement on the map or in text.







IsCatalogInMostPopularTable: catalog: 43131, numindb: 123
Update: records affected: 1



GetName: 43131 MICROMAS-2A

Hit Count: updated at: Fri, 20 Jul 2018 20:36:10 GMT